DW7658 Weather Reports


Display with metric or nautical units.
time (UTC)temp
F
wind
direction
speed
MPH
gust
MPH
rain 1hr
in
rain 24hr
in
rain mn
in
humidity
%
barometer
mb
20260902211529 95 360 0.0 1.0 0.00 0.00 0.00 54 1009.7
20260902210024 96 267 0.0 1.0 0.00 0.00 0.00 53 1009.8
20260902204508 96 4 0.0 1.0 0.00 0.00 0.00 54 1009.7
20260902203006 97 236 0.0 2.0 0.00 0.00 0.00 51 1009.9
20260902201553 97 41 0.0 6.0 0.00 0.00 0.00 52 1010.0
20260902200046 97 127 0.0 2.0 0.00 0.00 0.00 51 1010.1
20260902194537 96 115 0.0 2.0 0.00 0.00 0.00 54 1010.3
20260902193024 98 253 1.0 4.0 0.00 0.00 0.00 49 1010.4
20260902191507 98 233 0.0 2.0 0.00 0.00 0.00 52 1010.6
20260902190007 98 272 0.0 3.0 0.00 0.00 0.00 52 1010.8
20260902184549 96 218 0.0 2.0 0.00 0.00 0.00 56 1010.9
20260902183048 97 298 0.0 1.0 0.00 0.00 0.00 52 1011.1
20260902181531 99 118 0.0 3.0 0.00 0.00 0.00 49 1011.1
20260902180029 98 124 0.0 5.0 0.00 0.00 0.00 52 1011.1
20260902174512 99 276 0.0 8.0 0.00 0.00 0.00 50 1011.3
20260902173010 98 155 0.0 4.0 0.00 0.00 0.00 54 1011.5
20260902171552 98 125 1.0 4.0 0.00 0.00 0.00 52 1011.7
20260902170050 97 25 0.0 3.0 0.00 0.00 0.00 56 1011.9
20260902164532 98 94 1.0 3.0 0.00 0.00 0.00 54 1011.9
20260902163028 97 231 0.0 2.0 0.00 0.00 0.00 57 1012.1
20260902161510 95 174 1.0 3.0 0.00 0.00 0.00 56 1012.4
20260902160010 94 63 0.0 4.0 0.00 0.00 0.00 60 1012.4
20260902154554 96 233 0.0 2.0 0.00 0.00 0.00 57 1012.5
20260902153050 96 232 0.0 2.0 0.00 0.00 0.00 57 1012.5
20260902151531 95 239 0.0 2.0 0.00 0.00 0.00 59 1012.5
20260902150028 94 237 0.0 1.0 0.00 0.00 0.00 60 1012.6
20260902144506 94 252 0.0 2.0 0.00 0.00 0.00 62 1012.6
20260902143002 92 236 0.0 0.0 0.00 0.00 0.00 63 1012.7
20260902141542 91 236 0.0 0.0 0.00 0.00 0.00 67 1012.6
20260902140037 90 238 0.0 0.0 0.00 0.00 0.00 68 1012.5
20260902134525 88 233 0.0 1.0 0.00 0.00 0.00 71 1012.4
20260902133011 86 236 0.0 0.0 0.00 0.00 0.00 74 1012.5
20260902131556 84 236 0.0 0.0 0.00 0.00 0.00 77 1012.6
20260902130046 82 236 0.0 0.0 0.00 0.00 0.00 82 1012.5
20260902124526 79 236 0.0 0.0 0.00 0.00 0.00 85 1012.5
20260902123026 76 236 0.0 0.0 0.00 0.00 0.00 85 1012.3
20260902121508 73 238 0.0 0.0 0.00 0.00 0.00 87 1012.4
20260902120004 70 238 0.0 0.0 0.00 0.00 0.00 87 1012.3
20260902114546 0 0.0 0.0 0.00 0.00 0.00 1012.1
20260902113046 0 0.0 0.0 0.00 0.00 0.00 1012.0
20260902111519 0 0.0 0.0 0.00 0.00 0.00 1011.8
20260902110027 0 0.0 0.0 0.00 0.00 0.00 1011.8
20260902104615 0 0.0 0.0 0.00 0.00 0.00 1011.8
20260902103047 0 0.0 0.0 0.00 0.00 0.00 1011.7
20260902101529 0 0.0 0.0 0.00 0.00 0.00 1011.7
20260902100021 0 0.0 0.0 0.00 0.00 0.00 1011.7
20260902094619 0 0.0 0.0 0.00 0.00 0.00 1011.6
20260902093112 0 0.0 0.0 0.00 0.00 0.00 1011.6
20260902091551 0 0.0 0.0 0.00 0.00 0.00 1011.6
20260902090035 0 0.0 0.0 0.00 0.00 0.00 1011.4
20260902084531 0 0.0 0.0 0.00 0.00 0.00 1011.3
20260902083026 0 0.0 0.0 0.00 0.00 0.00 1011.1
20260902081521 0 0.0 0.0 0.00 0.00 0.00 1011.1
20260902080022 0 0.0 0.0 0.00 0.00 0.00 1011.1
20260902074514 0 0.0 0.0 0.00 0.00 0.00 1011.0
20260902073012 70 236 0.0 0.0 0.00 0.00 0.00 87 1010.9
20260902071511 70 236 0.0 0.0 0.00 0.00 0.00 87 1010.9
20260902070053 70 236 0.0 0.0 0.00 0.00 0.00 87 1010.8
20260902064552 70 245 0.0 0.0 0.00 0.00 0.00 87 1010.8
20260902063042 70 243 0.0 0.0 0.00 0.00 0.00 87 1010.7
20260902061534 71 243 0.0 0.0 0.00 0.00 0.00 87 1010.8
20260902060015 71 245 0.0 0.0 0.00 0.00 0.00 87 1010.8
20260902054513 71 243 0.0 0.0 0.00 0.00 0.00 87 1010.9
20260902053055 71 243 0.0 0.0 0.00 0.00 0.00 87 1010.9
20260902051603 71 243 0.0 0.0 0.00 0.00 0.00 87 1010.9
20260902050035 72 245 0.0 0.0 0.00 0.00 0.00 87 1010.8
20260902044541 72 243 0.0 0.0 0.00 0.00 0.00 87 1010.8
20260902043014 72 243 0.0 0.0 0.00 0.00 0.00 87 1010.9
20260902041516 72 243 0.0 0.0 0.00 0.00 0.00 87 1010.9
20260902040056 73 243 0.0 0.0 0.00 0.00 0.00 87 1010.9
20260902034555 73 243 0.0 0.0 0.00 0.00 0.00 87 1010.9
20260902033036 73 243 0.0 0.0 0.00 0.00 0.00 87 1011.0
20260902031541 73 243 0.0 0.0 0.00 0.00 0.00 87 1010.9
20260902030021 74 243 0.0 0.0 0.00 0.00 0.00 87 1011.0
20260902024519 74 243 0.0 0.0 0.00 0.00 0.00 87 1010.9
20260902023017 75 243 0.0 0.0 0.00 0.00 0.00 86 1011.0
20260902021520 75 243 0.0 0.0 0.00 0.00 0.00 86 1010.9
20260902020013 76 243 0.0 0.0 0.00 0.00 0.00 86 1010.9
20260902014529 76 243 0.0 0.0 0.00 0.00 0.00 85 1010.8
20260902013007 77 243 0.0 0.0 0.00 0.00 0.00 85 1010.7
20260902011506 77 243 0.0 0.0 0.00 0.00 0.00 85 1010.6
20260902010048 78 243 0.0 0.0 0.00 0.00 0.00 84 1010.4
20260902004543 79 243 0.0 0.0 0.00 0.00 0.00 83 1010.4
20260902003025 80 243 0.0 0.0 0.00 0.00 0.00 82 1010.4
20260902001525 81 243 0.0 0.0 0.00 0.00 0.00 80 1010.4
20260902000007 83 243 0.0 0.0 0.00 0.00 0.00 78 1010.4
20260901234515 84 243 0.0 0.0 0.00 0.00 0.00 76 1010.3
20260901233054 85 243 0.0 0.0 0.00 0.00 0.00 74 1010.5
20260901231549 87 243 0.0 0.0 0.00 0.00 0.00 70 1010.6
20260901230036 87 243 0.0 1.0 0.00 0.00 0.00 69 1010.5
20260901224535 88 47 0.0 0.0 0.00 0.00 0.00 67 1010.4
20260901223014 89 47 0.0 0.0 0.00 0.00 0.00 64 1010.4
20260901221535 90 274 0.0 1.0 0.00 0.00 0.00 61 1010.3
20260901220057 91 94 0.0 2.0 0.00 0.00 0.00 61 1010.3
20260901214555 93 244 0.0 1.0 0.00 0.00 0.00 60 1010.3
20260901213039 94 262 0.0 1.0 0.00 0.00 0.00 57 1010.3